Time,TemperatureF,DewpointF,PressureIn,WindDirection,WindDirectionDegrees,WindSpeedMPH,WindSpeedGustMPH,Humidity,HourlyPrecipIn,Conditions,Clouds,dailyrainin,SoftwareType,DateUTC
2013-09-30 00:14:00,60.8,58.5,29.74,South,180,0.0,-999.0,92,-99.99,,,0.00,Acu-Link.com,2013-09-30 05:14:00,
2013-09-30 00:29:00,60.3,57.9,29.74,South,180,0.0,-999.0,92,-99.99,,,0.00,Acu-Link.com,2013-09-30 05:29:00,
2013-09-30 00:45:00,59.9,57.6,29.74,South,180,0.0,-999.0,92,-99.99,,,0.00,Acu-Link.com,2013-09-30 05:45:00,
2013-09-30 01:00:00,60.1,58.3,29.73,South,180,0.0,-999.0,94,-99.99,,,0.00,Acu-Link.com,2013-09-30 06:00:00,
2013-09-30 01:15:00,59.5,57.5,29.73,South,180,0.0,-999.0,93,-99.99,,,0.00,Acu-Link.com,2013-09-30 06:15:00,
2013-09-30 01:30:00,59.5,57.8,29.73,South,180,0.0,-999.0,94,-99.99,,,0.00,Acu-Link.com,2013-09-30 06:30:00,
2013-09-30 01:46:00,59.4,57.6,29.73,South,180,0.0,-999.0,94,-99.99,,,0.00,Acu-Link.com,2013-09-30 06:46:00,
2013-09-30 02:01:00,59.0,57.3,29.73,South,180,0.0,-999.0,94,-99.99,,,0.00,Acu-Link.com,2013-09-30 07:01:00,
2013-09-30 02:16:00,58.6,56.9,29.72,SSW,202,0.0,-999.0,94,-99.99,,,0.00,Acu-Link.com,2013-09-30 07:16:00,
2013-09-30 02:31:00,58.3,56.6,29.72,South,180,0.0,-999.0,94,-99.99,,,0.00,Acu-Link.com,2013-09-30 07:31:00,
2013-09-30 02:46:00,58.1,56.7,29.72,South,180,0.0,-999.0,95,-99.99,,,0.00,Acu-Link.com,2013-09-30 07:46:00,
2013-09-30 03:02:00,57.9,56.5,29.72,South,180,0.0,-999.0,95,-99.99,,,0.00,Acu-Link.com,2013-09-30 08:02:00,
2013-09-30 03:17:00,57.9,56.5,29.72,South,180,0.0,-999.0,95,-99.99,,,0.00,Acu-Link.com,2013-09-30 08:17:00,
2013-09-30 03:33:00,57.6,56.1,29.72,South,180,0.0,-999.0,95,-99.99,,,0.00,Acu-Link.com,2013-09-30 08:33:00,
2013-09-30 03:48:00,57.7,56.3,29.71,South,180,0.0,-999.0,95,-99.99,,,0.00,Acu-Link.com,2013-09-30 08:48:00,
2013-09-30 04:03:00,57.2,55.8,29.71,South,180,0.0,-999.0,95,-99.99,,,0.00,Acu-Link.com,2013-09-30 09:03:00,
2013-09-30 04:18:00,57.0,55.6,29.71,South,180,0.0,-999.0,95,-99.99,,,0.00,Acu-Link.com,2013-09-30 09:18:00,
2013-09-30 04:34:00,56.8,55.4,29.71,South,180,0.0,-999.0,95,-99.99,,,0.00,Acu-Link.com,2013-09-30 09:34:00,
2013-09-30 04:49:00,56.7,55.2,29.70,South,180,0.0,-999.0,95,-99.99,,,0.00,Acu-Link.com,2013-09-30 09:49:00,
2013-09-30 05:05:00,56.5,55.1,29.70,South,180,0.0,-999.0,95,-99.99,,,0.00,Acu-Link.com,2013-09-30 10:05:00,
2013-09-30 05:21:00,56.5,55.4,29.69,West,270,0.0,-999.0,96,-99.99,,,0.00,Acu-Link.com,2013-09-30 10:21:00,
2013-09-30 05:37:00,56.3,55.2,29.70,South,180,0.0,-999.0,96,-99.99,,,0.00,Acu-Link.com,2013-09-30 10:37:00,
2013-09-30 05:52:00,56.3,55.2,29.70,South,180,0.0,-999.0,96,-99.99,,,0.00,Acu-Link.com,2013-09-30 10:52:00,
2013-09-30 06:07:00,55.9,54.8,29.70,South,180,0.0,-999.0,96,-99.99,,,0.00,Acu-Link.com,2013-09-30 11:07:00,
2013-09-30 06:22:00,56.1,55.3,29.70,South,180,0.0,-999.0,97,-99.99,,,0.00,Acu-Link.com,2013-09-30 11:22:00,
2013-09-30 06:37:00,55.4,54.6,29.70,South,180,0.0,-999.0,97,-99.99,,,0.00,Acu-Link.com,2013-09-30 11:37:00,
2013-09-30 06:54:00,55.0,53.9,29.70,South,180,0.0,-999.0,96,-99.99,,,0.00,Acu-Link.com,2013-09-30 11:54:00,
2013-09-30 07:09:00,54.1,53.3,29.71,South,180,0.0,-999.0,97,-99.99,,,0.00,Acu-Link.com,2013-09-30 12:09:00,
2013-09-30 07:24:00,54.1,53.3,29.71,South,180,0.0,-999.0,97,-99.99,,,0.00,Acu-Link.com,2013-09-30 12:24:00,
2013-09-30 07:39:00,53.8,52.9,29.71,South,180,0.0,-999.0,97,-99.99,,,0.00,Acu-Link.com,2013-09-30 12:39:00,
2013-09-30 07:54:00,53.6,52.8,29.71,South,180,0.0,-999.0,97,-99.99,,,0.00,Acu-Link.com,2013-09-30 12:54:00,
2013-09-30 08:10:00,54.0,53.1,29.72,South,180,0.0,-999.0,97,-99.99,,,0.00,Acu-Link.com,2013-09-30 13:10:00,
2013-09-30 08:25:00,54.7,54.1,29.72,SSE,157,0.0,-999.0,98,-99.99,,,0.00,Acu-Link.com,2013-09-30 13:25:00,
2013-09-30 08:40:00,55.9,55.4,29.71,South,180,0.0,-999.0,98,-99.99,,,0.00,Acu-Link.com,2013-09-30 13:40:00,
2013-09-30 08:55:00,57.6,57.3,29.71,South,180,0.0,-999.0,99,-99.99,,,0.00,Acu-Link.com,2013-09-30 13:55:00,
2013-09-30 09:11:00,59.0,58.7,29.71,SSW,202,0.0,-999.0,99,-99.99,,,0.00,Acu-Link.com,2013-09-30 14:11:00,
2013-09-30 09:26:00,60.3,59.7,29.72,SSW,202,0.0,-999.0,98,-99.99,,,0.00,Acu-Link.com,2013-09-30 14:26:00,
2013-09-30 09:41:00,61.3,59.3,29.72,SSE,157,0.0,-999.0,93,-99.99,,,0.00,Acu-Link.com,2013-09-30 14:41:00,
2013-09-30 09:56:00,63.3,59.1,29.71,West,270,1.6,-999.0,86,-99.99,,,0.00,Acu-Link.com,2013-09-30 14:56:00,
2013-09-30 10:12:00,66.4,58.9,29.71,SSW,202,0.0,-999.0,77,-99.99,,,0.00,Acu-Link.com,2013-09-30 15:12:00,
2013-09-30 10:27:00,68.4,58.2,29.71,WSW,247,1.1,-999.0,70,-99.99,,,0.00,Acu-Link.com,2013-09-30 15:27:00,
2013-09-30 10:42:00,70.9,57.2,29.71,West,270,1.6,-999.0,62,-99.99,,,0.00,Acu-Link.com,2013-09-30 15:42:00,
2013-09-30 10:57:00,72.3,58.1,29.72,South,180,1.1,-999.0,61,-99.99,,,0.00,Acu-Link.com,2013-09-30 15:57:00,
2013-09-30 11:12:00,73.8,58.0,29.71,SW,225,0.0,-999.0,58,-99.99,,,0.00,Acu-Link.com,2013-09-30 16:12:00,
2013-09-30 11:28:00,75.2,54.1,29.71,SW,225,2.7,-999.0,48,-99.99,,,0.00,Acu-Link.com,2013-09-30 16:28:00,
2013-09-30 11:43:00,76.1,56.1,29.71,SSW,202,1.6,-999.0,50,-99.99,,,0.00,Acu-Link.com,2013-09-30 16:43:00,
2013-09-30 11:58:00,77.4,57.8,29.71,SSE,157,0.0,-999.0,51,-99.99,,,0.00,Acu-Link.com,2013-09-30 16:58:00,
2013-09-30 12:13:00,78.3,57.5,29.70,South,180,1.1,-999.0,49,-99.99,,,0.00,Acu-Link.com,2013-09-30 17:13:00,
2013-09-30 12:28:00,78.6,56.7,29.70,WSW,247,1.6,-999.0,47,-99.99,,,0.00,Acu-Link.com,2013-09-30 17:28:00,
2013-09-30 12:44:00,80.1,58.0,29.70,WNW,292,1.6,-999.0,47,-99.99,,,0.00,Acu-Link.com,2013-09-30 17:44:00,
2013-09-30 12:59:00,80.4,56.5,29.70,SSW,202,1.1,-999.0,44,-99.99,,,0.00,Acu-Link.com,2013-09-30 17:59:00,
2013-09-30 13:14:00,81.0,54.3,29.69,South,180,1.6,-999.0,40,-99.99,,,0.00,Acu-Link.com,2013-09-30 18:14:00,
2013-09-30 13:29:00,81.3,55.3,29.68,South,180,0.0,-999.0,41,-99.99,,,0.00,Acu-Link.com,2013-09-30 18:29:00,
2013-09-30 13:44:00,81.9,55.8,29.67,SSE,157,0.0,-999.0,41,-99.99,,,0.00,Acu-Link.com,2013-09-30 18:44:00,
2013-09-30 14:00:00,83.1,54.9,29.66,NE,45,2.7,-999.0,38,-99.99,,,0.00,Acu-Link.com,2013-09-30 19:00:00,
2013-09-30 14:15:00,83.7,53.1,29.66,SSE,157,0.0,-999.0,35,-99.99,,,0.00,Acu-Link.com,2013-09-30 19:15:00,
2013-09-30 14:30:00,83.8,52.4,29.65,WSW,247,0.0,-999.0,34,-99.99,,,0.00,Acu-Link.com,2013-09-30 19:30:00,
2013-09-30 14:45:00,84.2,52.8,29.65,SSW,202,1.6,-999.0,34,-99.99,,,0.00,Acu-Link.com,2013-09-30 19:45:00,
2013-09-30 15:01:00,84.4,55.2,29.65,South,180,1.1,-999.0,37,-99.99,,,0.00,Acu-Link.com,2013-09-30 20:01:00,
2013-09-30 15:16:00,85.1,56.6,29.63,South,180,0.0,-999.0,38,-99.99,,,0.00,Acu-Link.com,2013-09-30 20:16:00,
2013-09-30 15:31:00,84.4,56.7,29.63,WSW,247,1.1,-999.0,39,-99.99,,,0.00,Acu-Link.com,2013-09-30 20:31:00,
2013-09-30 15:46:00,84.6,56.8,29.63,East,90,1.6,-999.0,39,-99.99,,,0.00,Acu-Link.com,2013-09-30 20:46:00,
2013-09-30 16:01:00,84.7,57.0,29.62,South,180,0.0,-999.0,39,-99.99,,,0.00,Acu-Link.com,2013-09-30 21:01:00,
2013-09-30 16:17:00,85.6,57.1,29.62,South,180,0.0,-999.0,38,-99.99,,,0.00,Acu-Link.com,2013-09-30 21:17:00,
2013-09-30 16:32:00,85.6,57.8,29.63,SSW,202,1.6,-999.0,39,-99.99,,,0.00,Acu-Link.com,2013-09-30 21:32:00,
2013-09-30 16:47:00,85.6,57.1,29.63,WSW,247,0.0,-999.0,38,-99.99,,,0.00,Acu-Link.com,2013-09-30 21:47:00,
2013-09-30 17:02:00,85.3,57.5,29.62,WSW,247,1.1,-999.0,39,-99.99,,,0.00,Acu-Link.com,2013-09-30 22:02:00,
2013-09-30 17:17:00,85.5,58.4,29.63,South,180,0.0,-999.0,40,-99.99,,,0.00,Acu-Link.com,2013-09-30 22:17:00,
2013-09-30 17:33:00,84.7,56.3,29.63,South,180,0.0,-999.0,38,-99.99,,,0.00,Acu-Link.com,2013-09-30 22:33:00,
2013-09-30 17:48:00,84.7,57.7,29.63,WSW,247,1.6,-999.0,40,-99.99,,,0.00,Acu-Link.com,2013-09-30 22:48:00,
2013-09-30 18:03:00,84.6,58.2,29.62,SSW,202,0.0,-999.0,41,-99.99,,,0.00,Acu-Link.com,2013-09-30 23:03:00,
2013-09-30 18:18:00,84.2,58.6,29.63,ESE,112,0.0,-999.0,42,-99.99,,,0.00,Acu-Link.com,2013-09-30 23:18:00,
2013-09-30 18:34:00,83.5,59.2,29.63,SSW,202,0.0,-999.0,44,-99.99,,,0.00,Acu-Link.com,2013-09-30 23:34:00,
2013-09-30 18:49:00,82.2,60.5,29.63,East,90,0.0,-999.0,48,-99.99,,,0.00,Acu-Link.com,2013-09-30 23:49:00,
2013-09-30 19:04:00,81.1,60.7,29.64,South,180,0.0,-999.0,50,-99.99,,,0.00,Acu-Link.com,2013-10-01 00:04:00,
2013-09-30 19:19:00,79.0,60.4,29.63,South,180,0.0,-999.0,53,-99.99,,,0.00,Acu-Link.com,2013-10-01 00:19:00,
2013-09-30 19:34:00,77.4,60.4,29.64,South,180,0.0,-999.0,56,-99.99,,,0.00,Acu-Link.com,2013-10-01 00:34:00,
2013-09-30 19:50:00,75.6,61.1,29.64,South,180,0.0,-999.0,61,-99.99,,,0.00,Acu-Link.com,2013-10-01 00:50:00,
2013-09-30 20:05:00,73.9,61.0,29.64,South,180,0.0,-999.0,64,-99.99,,,0.00,Acu-Link.com,2013-10-01 01:05:00,
2013-09-30 20:20:00,72.7,61.1,29.64,SSW,202,0.0,-999.0,67,-99.99,,,0.00,Acu-Link.com,2013-10-01 01:20:00,
2013-09-30 20:35:00,71.6,60.9,29.65,SSW,202,0.0,-999.0,69,-99.99,,,0.00,Acu-Link.com,2013-10-01 01:35:00,
2013-09-30 20:50:00,70.7,61.2,29.65,SSW,202,0.0,-999.0,72,-99.99,,,0.00,Acu-Link.com,2013-10-01 01:50:00,
2013-09-30 21:06:00,70.3,62.0,29.66,South,180,0.0,-999.0,75,-99.99,,,0.00,Acu-Link.com,2013-10-01 02:06:00,
2013-09-30 21:21:00,70.3,62.0,29.66,South,180,0.0,-999.0,75,-99.99,,,0.00,Acu-Link.com,2013-10-01 02:21:00,
2013-09-30 21:36:00,70.2,62.2,29.66,SSW,202,0.0,-999.0,76,-99.99,,,0.00,Acu-Link.com,2013-10-01 02:36:00,
2013-09-30 21:51:00,69.6,62.1,29.67,South,180,0.0,-999.0,77,-99.99,,,0.00,Acu-Link.com,2013-10-01 02:51:00,
2013-09-30 22:06:00,68.9,62.5,29.67,South,180,0.0,-999.0,80,-99.99,,,0.00,Acu-Link.com,2013-10-01 03:06:00,
2013-09-30 22:22:00,68.5,62.1,29.67,South,180,0.0,-999.0,80,-99.99,,,0.00,Acu-Link.com,2013-10-01 03:22:00,
2013-09-30 22:37:00,67.8,62.1,29.67,South,180,0.0,-999.0,82,-99.99,,,0.00,Acu-Link.com,2013-10-01 03:37:00,
2013-09-30 22:52:00,67.3,61.9,29.67,South,180,0.0,-999.0,83,-99.99,,,0.00,Acu-Link.com,2013-10-01 03:52:00,
2013-09-30 23:07:00,66.9,62.3,29.67,SSW,202,0.0,-999.0,85,-99.99,,,0.00,Acu-Link.com,2013-10-01 04:07:00,
2013-09-30 23:22:00,66.6,61.9,29.66,SSW,202,0.0,-999.0,85,-99.99,,,0.00,Acu-Link.com,2013-10-01 04:22:00,
2013-09-30 23:38:00,66.2,61.9,29.67,South,180,0.0,-999.0,86,-99.99,,,0.00,Acu-Link.com,2013-10-01 04:38:00,
2013-09-30 23:53:00,65.7,61.4,29.66,SSW,202,0.0,-999.0,86,-99.99,,,0.00,Acu-Link.com,2013-10-01 04:53:00,